Back to catalog

SL-8 R/B

AlivePO
NORAD 14451·ROCKET BODY·🇷🇺 Russia

Launched Oct 26, 1983 from Plesetsk Cosmodrome

Loading…

Next Passes (next 24 hours)

TLE

FreshSource: Space-Track

Epoch: Sep 14, 2026, 11:06 UTC

1 14451U 83108B   26257.46264201  .00000060  00000-0  44591-4 0  9995
2 14451  82.9323 171.8452 0031919 341.6467  18.3537 13.78380760155973

Track SL-8 R/B in real time with AllMySat

Download on the App Store